Simultaneous Nadir Overpasses (SNOs) Predictions

Prediction of SNOs between AQUA and METOP-C Satellite Orbit:

Table of predicted SNOs for the next 14.0 days since TLE Epoch: 11/28/2020
Index Date (AQUA) Time (AQUA) Lat,Lon (AQUA) SZA (AQUA ) Date (METOP-C) Time (METOP-C) Lat,Lon (METOP-C) SZA (METOP-C ) Distance(km) Time Diff (sec)
1 11/30/2020 23:14:12 -73.59, 6.14 84.66 11/30/2020 23:12:59 -73.56, 5.79 84.68 11.67 73
2 12/01/2020 00:03:43 73.75, 173.43 95.52 12/01/2020 00:03:36 73.74, 173.53 95.50 3.49 7
3 12/01/2020 00:53:09 -73.80, -19.02 84.44 12/01/2020 00:54:16 -73.79, -19.01 84.45 0.65 67
4 12/03/2020 18:48:28 -73.67, 72.40 84.16 12/03/2020 18:47:20 -73.65, 72.41 84.18 2.66 68
5 12/03/2020 19:37:57 73.73,-120.09 95.91 12/03/2020 19:37:59 73.73,-120.08 95.90 0.61 2
6 12/03/2020 20:27:25 -73.88, 47.24 83.94 12/03/2020 20:28:37 -73.88, 47.61 83.95 11.58 72
7 12/06/2020 14:22:43 -73.66, 138.86 83.82 12/06/2020 14:21:43 -73.69, 138.90 83.79 2.93 60
8 12/06/2020 15:12:12 73.73, -53.63 96.25 12/06/2020 15:12:23 73.72, -53.70 96.24 2.40 11
9 12/06/2020 16:01:46 -74.18, 112.99 83.28 12/06/2020 16:02:55 -74.16, 114.71 83.32 52.26 69
10 12/09/2020 09:56:58 -73.67,-154.70 83.52 12/09/2020 09:56:07 -73.67,-154.73 83.51 1.11 51
11 12/09/2020 10:46:27 73.73, 12.79 96.55 12/09/2020 10:46:46 73.75, 12.78 96.57 2.19 19
12 12/09/2020 11:36:07 -74.49, 178.70 82.66 12/09/2020 11:37:12 -74.49,-178.04 82.71 97.01 65
13 12/12/2020 05:31:13 -73.68, -88.29 83.27 12/12/2020 05:30:30 -73.70, -88.25 83.25 3.16 43
14 12/12/2020 06:20:42 73.75, 79.20 96.80 12/12/2020 06:21:10 73.73, 79.14 96.79 2.52 28
